When you browse on this site, cookies collect data to enhance your experience and personalize the content and advertising you see.
Visit our Privacy Policy to learn more. By continuing to use the site, you agree to this use of cookies and data.
  • în România
  • Lista ţărilor
  • Pe 7 zile
  • Temperatura apei
  • Hartă satelitară
  • Meteo pe hartă
  • Widget-uri
  • user-avatar
    Intrare

    Meteo pe oră la Azzano Decimo

    Astăzi, 16 Iulie, Marţi

    Timp Temperatura Precipitaţii Vânt Presiune Umiditate
    00:00 +18°C° 0 mm 2 m/s 760 mmHg 75%
    01:00 +18°C° 0 mm 3 m/s 760 mmHg 78%
    02:00 +17°C° 0 mm 2 m/s 760 mmHg 78%
    03:00 +17°C° 0 mm 2 m/s 759 mmHg 78%
    04:00 +17°C° 0 mm 2 m/s 759 mmHg 78%
    05:00 +18°C° 0 mm 2 m/s 759 mmHg 77%
    06:00 +19°C° 0 mm 2 m/s 760 mmHg 76%
    07:00 +21°C° 0 mm 1 m/s 760 mmHg 75%
    08:00 +23°C° 0 mm 1 m/s 760 mmHg 68%
    09:00 +25°C° 0 mm 1 m/s 760 mmHg 62%
    10:00 +26°C° 0 mm 1 m/s 760 mmHg 55%
    11:00 +27°C° 0 mm 1 m/s 759 mmHg 54%
    12:00 +28°C° 0 mm 2 m/s 759 mmHg 53%
    13:00 +28°C° 0 mm 2 m/s 759 mmHg 51%
    14:00 +28°C° 0 mm 3 m/s 759 mmHg 53%
    15:00 +28°C° 0 mm 3 m/s 759 mmHg 55%
    16:00 +28°C° 0 mm 3 m/s 759 mmHg 56%
    17:00 +27°C° 0 mm 3 m/s 759 mmHg 62%
    18:00 +26°C° 0 mm 2 m/s 759 mmHg 68%
    19:00 +25°C° 0 mm 2 m/s 759 mmHg 74%
    20:00 +23°C° 0 mm 2 m/s 759 mmHg 75%
    21:00 +21°C° 0 mm 2 m/s 760 mmHg 75%
    22:00 +21°C° 0 mm 1 m/s 760 mmHg 76%
    23:00 +20°C° 0 mm 1 m/s 760 mmHg 77%

    Mâine, 17 Iulie, Miercuri

    Timp Temperatura Precipitaţii Vânt Presiune Umiditate
    00:00 +20°C° 0 mm 1 m/s 760 mmHg 77%
    01:00 +19°C° 0 mm 1 m/s 760 mmHg 78%
    02:00 +19°C° 0 mm 1 m/s 760 mmHg 78%
    03:00 +19°C° 0 mm 1 m/s 760 mmHg 78%
    04:00 +18°C° 0 mm 1 m/s 760 mmHg 78%
    05:00 +20°C° 0 mm 1 m/s 759 mmHg 76%
    06:00 +21°C° 0 mm 1 m/s 759 mmHg 74%
    07:00 +22°C° 0 mm 1 m/s 759 mmHg 73%
    08:00 +23°C° 0 mm 1 m/s 759 mmHg 69%
    09:00 +25°C° 0 mm 1 m/s 759 mmHg 65%
    10:00 +26°C° 0 mm 1 m/s 759 mmHg 61%
    11:00 +27°C° 0 mm 1 m/s 758 mmHg 58%
    12:00 +28°C° 0 mm 2 m/s 758 mmHg 56%
    13:00 +29°C° 0 mm 2 m/s 758 mmHg 53%
    14:00 +29°C° 0 mm 2 m/s 758 mmHg 54%
    15:00 +29°C° 0 mm 2 m/s 757 mmHg 55%
    16:00 +29°C° 0 mm 3 m/s 757 mmHg 56%
    17:00 +27°C° 0.1 mm 2 m/s 757 mmHg 62%
    18:00 +26°C° 0.1 mm 1 m/s 757 mmHg 69%
    19:00 +25°C° 0.1 mm 1 m/s 757 mmHg 76%
    20:00 +24°C° 0.1 mm 1 m/s 757 mmHg 76%
    21:00 +23°C° 0.1 mm 1 m/s 758 mmHg 76%
    22:00 +22°C° 0.1 mm 1 m/s 758 mmHg 76%
    23:00 +22°C° 0.2 mm 1 m/s 758 mmHg 79%

    Poimâine, 18 Iulie, Joi

    Timp Temperatura Precipitaţii Vânt Presiune Umiditate
    00:00 +22°C° 0.2 mm 1 m/s 758 mmHg 81%
    01:00 +21°C° 0.2 mm 1 m/s 757 mmHg 84%
    02:00 +21°C° 0.4 mm 1 m/s 757 mmHg 84%
    03:00 +19°C° 0.4 mm 2 m/s 757 mmHg 85%
    04:00 +19°C° 0.4 mm 2 m/s 757 mmHg 85%
    05:00 +20°C° 0.3 mm 2 m/s 757 mmHg 84%
    06:00 +20°C° 0.3 mm 2 m/s 757 mmHg 83%
    07:00 +21°C° 0.3 mm 2 m/s 757 mmHg 82%
    08:00 +23°C° 0.2 mm 2 m/s 757 mmHg 77%
    09:00 +25°C° 0.2 mm 2 m/s 757 mmHg 71%
    10:00 +26°C° 0.2 mm 2 m/s 757 mmHg 66%
    11:00 +27°C° 0.3 mm 1 m/s 757 mmHg 62%
    12:00 +28°C° 0.3 mm 1 m/s 757 mmHg 58%
    13:00 +29°C° 0.3 mm 1 m/s 757 mmHg 54%
    14:00 +29°C° 0 mm 1 m/s 757 mmHg 54%
    15:00 +29°C° 0 mm 1 m/s 757 mmHg 55%
    16:00 +29°C° 0 mm 1 m/s 757 mmHg 56%
    17:00 +27°C° 0 mm 1 m/s 757 mmHg 63%
    18:00 +26°C° 0 mm 1 m/s 757 mmHg 69%
    19:00 +25°C° 0 mm 1 m/s 757 mmHg 75%
    20:00 +24°C° 0.2 mm 1 m/s 758 mmHg 78%
    21:00 +23°C° 0.2 mm 2 m/s 758 mmHg 81%
    22:00 +21°C° 0.2 mm 2 m/s 759 mmHg 84%
    23:00 +20°C° 0.4 mm 2 m/s 759 mmHg 85%

    19 Iulie, Vineri

    Timp Temperatura Precipitaţii Vânt Presiune Umiditate
    00:00 +20°C° 0.4 mm 2 m/s 759 mmHg 86%
    01:00 +20°C° 0.4 mm 2 m/s 759 mmHg 88%
    02:00 +19°C° 0.4 mm 2 m/s 759 mmHg 88%
    03:00 +19°C° 0.4 mm 2 m/s 759 mmHg 88%
    04:00 +18°C° 0.4 mm 2 m/s 759 mmHg 88%
    05:00 +19°C° 0 mm 2 m/s 759 mmHg 86%
    06:00 +20°C° 0 mm 2 m/s 759 mmHg 85%
    07:00 +21°C° 0 mm 2 m/s 759 mmHg 84%
    08:00 +23°C° 0.1 mm 1 m/s 759 mmHg 77%
    09:00 +25°C° 0.1 mm 1 m/s 759 mmHg 71%
    10:00 +26°C° 0.1 mm 1 m/s 759 mmHg 64%
    11:00 +27°C° 0.3 mm 1 m/s 759 mmHg 63%
    12:00 +28°C° 0.3 mm 1 m/s 759 mmHg 61%
    13:00 +28°C° 0.3 mm 2 m/s 759 mmHg 59%
    14:00 +28°C° 0.4 mm 1 m/s 759 mmHg 60%
    15:00 +28°C° 0.4 mm 1 m/s 759 mmHg 61%
    16:00 +28°C° 0.4 mm 1 m/s 759 mmHg 62%
    17:00 +27°C° 0.2 mm 1 m/s 759 mmHg 69%
    18:00 +26°C° 0.2 mm 1 m/s 759 mmHg 75%
    19:00 +25°C° 0.2 mm 1 m/s 760 mmHg 81%
    20:00 +24°C° 0.1 mm 1 m/s 760 mmHg 84%
    21:00 +23°C° 0.1 mm 1 m/s 760 mmHg 86%
    22:00 +22°C° 0.1 mm 1 m/s 761 mmHg 88%
    23:00 +21°C° 0 mm 1 m/s 761 mmHg 88%

    20 Iulie, Sâmbătă

    Timp Temperatura Precipitaţii Vânt Presiune Umiditate
    00:00 +20°C° 0 mm 2 m/s 761 mmHg 87%
    01:00 +20°C° 0 mm 2 m/s 761 mmHg 87%
    02:00 +19°C° 0 mm 2 m/s 761 mmHg 86%
    03:00 +19°C° 0 mm 2 m/s 761 mmHg 85%
    04:00 +19°C° 0 mm 2 m/s 761 mmHg 84%
    05:00 +20°C° 0 mm 2 m/s 761 mmHg 82%
    06:00 +22°C° 0 mm 1 m/s 761 mmHg 80%
    07:00 +23°C° 0 mm 1 m/s 761 mmHg 78%
    08:00 +25°C° 0 mm 1 m/s 761 mmHg 74%
    09:00 +26°C° 0 mm 1 m/s 761 mmHg 70%
    10:00 +28°C° 0 mm 1 m/s 761 mmHg 65%
    11:00 +28°C° 0.1 mm 1 m/s 761 mmHg 63%
    12:00 +29°C° 0.1 mm 1 m/s 761 mmHg 60%
    13:00 +30°C° 0.1 mm 2 m/s 761 mmHg 58%
    14:00 +30°C° 0.1 mm 2 m/s 761 mmHg 60%
    15:00 +29°C° 0.1 mm 2 m/s 761 mmHg 61%
    16:00 +29°C° 0.1 mm 2 m/s 761 mmHg 63%
    17:00 +28°C° 0.3 mm 2 m/s 761 mmHg 69%
    18:00 +27°C° 0.3 mm 1 m/s 761 mmHg 75%
    19:00 +26°C° 0.3 mm 1 m/s 761 mmHg 81%
    20:00 +25°C° 0 mm 1 m/s 762 mmHg 82%
    21:00 +24°C° 0 mm 1 m/s 762 mmHg 83%
    22:00 +21°C° 0 mm 0 m/s 763 mmHg 85%
    23:00 +20°C° 0 mm 0 m/s 763 mmHg 86%

    21 Iulie, Duminică

    Timp Temperatura Precipitaţii Vânt Presiune Umiditate
    00:00 +22°C° 0 mm 1 m/s 763 mmHg 87%
    01:00 +22°C° 0 mm 1 m/s 763 mmHg 88%
    02:00 +21°C° 0 mm 1 m/s 763 mmHg 88%
    03:00 +21°C° 0 mm 1 m/s 762 mmHg 89%
    04:00 +21°C° 0 mm 1 m/s 762 mmHg 89%
    05:00 +22°C° 0 mm 1 m/s 763 mmHg 86%
    06:00 +23°C° 0 mm 1 m/s 763 mmHg 83%
    07:00 +24°C° 0 mm 1 m/s 763 mmHg 80%
    08:00 +26°C° 0 mm 1 m/s 763 mmHg 76%
    09:00 +27°C° 0 mm 1 m/s 763 mmHg 71%
    10:00 +27°C° 0 mm 0 m/s 763 mmHg 66%
    11:00 +30°C° 0 mm 1 m/s 763 mmHg 64%
    12:00 +30°C° 0 mm 1 m/s 763 mmHg 61%
    13:00 +31°C° 0 mm 1 m/s 763 mmHg 58%
    14:00 +31°C° 0 mm 1 m/s 762 mmHg 58%
    15:00 +32°C° 0 mm 1 m/s 762 mmHg 58%
    16:00 +32°C° 0 mm 1 m/s 762 mmHg 58%
    17:00 +31°C° 0 mm 1 m/s 762 mmHg 63%
    18:00 +30°C° 0 mm 1 m/s 762 mmHg 69%
    19:00 +26°C° 0 mm 0 m/s 762 mmHg 75%
    20:00 +27°C° 0 mm 1 m/s 763 mmHg 78%
    21:00 +26°C° 0 mm 1 m/s 763 mmHg 81%
    22:00 +24°C° 0 mm 1 m/s 764 mmHg 83%
    23:00 +24°C° 0 mm 1 m/s 764 mmHg 82%
    Arată mai mult